Total_Precipitation_Accumulation
2.23 2.35 2.81 2.57 2.42 2.54 2.72 2.65 2.90 3.20 2.99 2.81 2.77 2.74 2.83 3.18 3.29 3.21 3.18 3.31 3.74 4.28 4.70 4.88 4.89 4.74 4.68 4.52 3.85 3.29 2.90 2.83 2.82 2.76 2.64 2.56 2.65 2.89 2.98 3.11 3.12 2.35 2.24
1.96 2.25 2.61 2.48 2.30 2.47 2.63 2.68 2.85 3.08 3.00 2.83 2.76 2.80 2.96 3.27 3.25 3.18 3.13 3.26 3.57 4.09 4.43 4.34 4.25 4.03 3.86 3.65 3.29 3.04 2.97 3.06 3.17 3.17 3.21 2.99 3.08 3.17 3.07 3.13 3.25 2.43 2.39
1.89 2.01 2.12 2.20 2.04 2.17 2.33 2.37 2.51 2.95 3.19 3.08 2.83 2.73 2.94 3.21 3.43 3.55 3.45 3.46 3.75 4.17 4.37 4.22 3.94 3.74 3.54 3.38 3.08 2.96 2.94 3.19 3.50 3.78 4.09 3.11 2.60 3.14 3.10 3.08 2.81 2.33 2.25
1.45 1.55 1.65 1.89 1.89 1.90 2.07 2.22 2.37 2.70 3.06 2.90 2.72 2.58 2.84 3.20 3.50 3.68 3.68 3.59 3.83 4.22 4.56 4.43 4.10 3.82 3.50 3.23 3.01 2.96 3.03 3.32 3.57 4.08 3.94 2.78 2.07 2.51 2.82 2.74 2.45 2.16 2.01
1.33 1.42 1.73 1.82 1.76 1.82 1.98 2.13 2.24 2.47 2.64 2.57 2.62 2.71 2.97 3.37 3.68 3.76 3.69 3.60 3.72 4.02 4.39 4.49 4.01 3.47 3.18 3.04 3.09 3.18 3.28 3.52 3.79 3.71 2.95 2.89 2.75 2.68 2.57 2.47 2.35 2.10 1.91
1.46 1.51 1.68 1.82 1.76 1.91 1.96 1.94 2.10 2.28 2.37 2.53 2.68 2.79 3.12 3.42 3.61 3.62 3.49 3.45 3.61 3.84 4.06 4.08 3.66 3.18 3.03 3.09 3.22 3.32 3.50 3.70 3.61 2.79 2.49 2.56 2.40 2.53 2.53 2.46 2.32 2.11 1.96
1.37 1.57 1.69 1.77 1.66 1.69 1.66 1.75 2.01 2.12 2.24 2.48 2.57 2.76 3.08 3.41 3.57 3.62 3.50 3.58 3.62 3.81 3.96 3.73 3.35 3.11 3.22 3.17 3.19 3.25 3.53 3.66 2.96 2.43 2.55 2.74 2.41 2.37 2.64 2.67 2.42 2.13 1.87
1.24 1.44 1.67 1.70 1.56 1.49 1.55 1.70 1.86 2.01 2.16 2.37 2.46 2.65 2.98 3.33 3.39 3.23 3.27 3.45 3.31 3.55 3.68 3.38 3.11 2.95 3.09 3.15 3.10 3.23 3.39 3.18 2.38 2.10 2.25 2.40 2.10 2.31 2.80 2.81 2.56 2.34 2.01
1.24 1.35 1.52 1.61 1.53 1.48 1.54 1.76 1.92 2.02 2.23 2.40 2.46 2.70 3.09 3.34 3.33 3.16 3.13 3.25 3.29 3.57 3.42 3.10 3.08 2.95 2.96 3.13 3.16 3.34 3.37 3.15 2.44 2.23 1.97 2.09 1.97 2.31 2.84 2.81 2.58 2.48 2.17
1.37 1.45 1.44 1.54 1.45 1.41 1.54 1.91 2.17 2.28 2.55 2.77 2.81 3.02 3.49 3.55 3.45 3.30 3.07 3.20 3.34 3.51 3.37 3.18 3.15 3.09 3.09 3.24 3.41 3.55 3.49 2.98 2.35 2.12 2.04 1.89 2.04 2.51 2.94 2.86 2.74 2.63 2.41
1.58 1.72 1.66 1.70 1.50 1.52 1.57 1.86 2.30 2.45 2.80 3.23 3.43 3.69 4.08 4.13 3.79 3.72 3.31 3.62 3.74 3.78 3.75 3.62 3.60 3.52 3.38 3.40 3.65 3.69 3.34 2.80 2.68 2.30 2.09 1.97 2.31 2.81 3.12 3.21 3.10 2.94 2.75
1.88 1.70 1.74 1.79 1.64 1.73 1.71 2.04 2.73 2.80 3.16 3.58 3.82 3.88 4.21 4.35 4.27 3.70 3.98 4.49 4.68 4.73 4.68 4.61 4.59 4.25 3.65 3.33 3.72 4.00 3.23 2.94 2.83 2.40 2.10 2.20 2.56 3.02 3.29 3.41 3.13 3.00 2.91
1.89 1.67 1.77 1.87 1.99 2.10 2.44 2.27 2.50 3.00 3.56 3.77 3.93 4.16 4.31 4.14 4.00 3.86 4.30 4.95 5.16 5.15 5.06 5.06 5.03 4.45 4.07 4.04 4.11 3.91 3.40 3.24 2.97 2.56 2.64 2.78 3.00 3.49 3.71 3.52 3.25 3.06 2.86
2.29 2.23 2.18 2.36 2.60 2.65 2.50 2.51 2.42 2.62 3.19 3.73 4.00 3.85 4.04 4.50 4.45 4.10 4.20 4.48 4.74 4.91 5.20 4.87 4.75 4.66 4.43 4.10 3.82 3.77 3.51 3.38 3.23 3.20 3.40 3.40 3.37 3.79 4.11 3.84 3.53 3.34 3.15
3.03 3.21 3.14 3.11 3.06 3.14 3.16 3.05 2.63 2.95 3.06 3.18 3.62 3.72 3.75 4.26 4.57 4.50 4.43 4.62 4.22 4.31 4.70 4.76 4.44 4.49 4.52 4.23 3.78 3.59 3.58 3.47 3.52 3.41 3.52 3.69 3.48 3.60 4.08 4.13 4.02 3.80 3.62
3.76 4.28 4.07 3.89 3.65 3.57 3.64 3.64 3.58 3.29 3.25 3.07 3.35 3.57 3.73 4.16 4.51 4.62 4.59 4.63 4.16 4.02 4.20 4.31 4.18 4.39 4.36 4.21 3.75 3.47 3.40 3.59 3.64 3.48 3.56 3.86 3.72 3.41 3.61 3.95 4.23 4.29 4.11
4.41 5.02 4.79 4.65 4.64 4.47 4.39 4.07 3.68 3.42 3.26 3.49 3.68 3.85 4.00 4.15 4.54 4.75 4.72 4.54 4.39 4.32 4.31 4.22 4.19 4.49 4.20 4.02 3.83 3.71 3.61 3.62 3.47 3.44 3.49 3.74 3.37 3.18 3.22 3.39 3.80 4.16 4.50
4.61 5.08 5.42 5.01 5.45 5.45 5.25 4.86 4.38 4.08 4.07 4.03 3.97 4.15 3.99 3.94 4.12 4.62 4.45 4.22 4.43 4.54 4.61 4.51 4.37 4.45 4.49 4.53 4.38 4.17 3.91 3.76 3.11 3.05 3.14 3.24 3.39 2.93 3.05 3.31 3.46 3.67 4.27
4.84 5.43 5.93 6.12 6.21 5.82 5.56 5.33 5.13 4.77 4.47 4.03 3.64 3.59 3.51 3.30 3.27 3.54 3.62 3.73 3.82 4.03 3.96 3.65 4.04 4.24 4.47 4.62 4.33 4.14 3.71 3.55 3.24 3.08 3.13 2.84 3.00 3.03 3.09 3.15 3.40 3.45 4.02
4.93 5.86 6.32 6.49 6.11 5.71 5.44 5.14 5.02 4.63 4.21 3.84 3.46 3.23 3.05 3.05 2.90 3.10 2.97 3.08 3.29 3.61 3.74 3.85 4.11 3.98 3.87 4.07 3.69 3.75 3.57 3.29 3.20 3.13 2.92 2.87 2.88 2.78 2.90 3.15 3.46 3.12 3.66
4.95 5.97 6.44 6.31 5.76 5.27 4.91 4.60 4.33 3.97 3.66 3.52 3.22 2.88 2.85 2.85 2.90 3.21 2.94 3.33 3.32 3.42 3.44 3.42 3.60 3.54 3.29 3.42 3.98 3.98 3.52 3.21 3.18 3.04 2.89 3.01 2.81 2.74 2.95 3.24 3.52 3.55 3.21
4.28 5.11 5.52 5.25 4.69 4.09 3.90 3.83 3.79 3.71 3.28 3.04 2.98 2.99 2.67 2.70 2.80 2.89 3.10 2.97 3.04 3.27 3.15 3.11 3.46 3.44 3.06 3.19 3.80 4.12 3.93 3.92 3.59 2.86 2.86 2.99 2.92 2.92 2.91 2.95 3.32 3.62 3.44
3.78 3.87 4.01 3.95 3.55 3.27 3.20 3.20 3.24 3.44 3.19 2.89 2.81 2.78 2.55 2.46 2.46 2.63 2.74 2.89 3.05 2.95 3.05 3.13 3.22 3.35 3.27 3.15 3.28 3.92 3.91 3.77 3.63 3.28 2.90 2.82 2.98 3.17 3.03 3.01 2.99 3.12 3.23
2.86 2.75 2.84 2.95 2.90 2.91 2.84 2.88 2.76 2.64 2.64 2.52 2.52 2.48 2.46 2.35 2.28 2.22 2.39 2.67 2.84 2.79 3.05 2.76 2.94 3.24 3.36 3.11 3.16 3.27 3.30 3.43 3.61 3.44 3.04 2.72 2.73 2.78 2.83 2.74 2.85 3.02 3.14
1.96 2.00 2.25 2.63 2.81 2.75 2.68 2.82 2.81 2.48 2.34 2.27 2.30 2.46 2.46 2.34 2.22 2.10 2.21 2.48 2.64 2.72 2.84 2.85 3.16 3.10 3.04 3.04 3.06 3.18 3.33 3.30 3.12 3.18 3.20 2.92 2.73 2.50 2.51 2.63 2.80 3.04 3.07
1.42 1.53 1.79 2.24 2.51 2.50 2.50 2.52 2.44 2.39 2.37 2.33 2.30 2.35 2.29 2.23 2.31 2.39 2.37 2.46 2.45 2.53 2.62 2.72 2.95 2.97 2.95 3.01 2.91 2.85 3.14 3.30 3.29 3.33 3.17 2.90 2.74 2.45 2.35 2.40 2.66 2.94 3.06